Temp
9 9 9 10 9 9 9 9 8 8 8 8 8 8 9 8 8 8 8 8 9 9 9 10 10 10 11 10 9 9 11 13 14 15 16 17 16 16 15 15 16 16 17 16 15 15 16
9 9 9 9 9 9 9 8 8 8 8 8 8 8 9 9 9 8 8 8 9 9 10 10 9 11 10 10 8 9 12 14 14 15 15 15 15 16 14 14 14 14 15 15 15 15 16
8 8 8 9 9 9 9 8 8 8 8 8 8 8 8 8 8 8 8 8 8 10 9 9 10 10 9 9 8 10 13 13 14 15 13 15 16 15 15 13 14 14 15 14 15 15 14
9 8 8 8 9 9 9 8 8 8 8 8 8 9 8 8 8 8 8 8 8 10 10 10 11 10 8 8 9 11 13 14 14 15 15 15 16 14 14 13 14 14 13 13 15 14 14
8 8 8 8 8 8 8 8 8 8 7 8 9 9 9 8 9 9 9 9 9 10 10 11 11 10 8 9 8 9 11 12 14 15 15 15 15 13 14 12 11 14 11 15 14 15 15
8 8 8 8 8 8 8 8 8 8 7 7 9 10 10 9 8 10 10 10 11 11 10 10 10 9 9 9 9 10 12 13 14 14 14 14 12 10 10 10 10 13 12 16 14 14 14
8 8 8 8 8 8 8 8 8 8 7 9 9 10 10 9 9 10 11 10 9 10 10 9 10 9 10 10 11 12 13 14 14 14 12 13 10 8 11 12 14 14 14 15 15 14 14
8 8 7 7 7 7 8 8 7 7 7 10 10 10 11 10 11 11 11 7 7 9 9 10 10 10 10 10 12 13 13 13 13 12 13 10 10 12 13 13 13 14 14 14 14 15 14
8 8 8 7 7 7 7 8 7 7 7 10 11 11 11 11 11 11 9 8 8 8 9 10 11 10 11 12 12 11 12 13 13 12 11 10 12 14 14 13 14 14 14 13 13 12 13
8 8 8 7 7 7 7 8 8 7 7 10 11 12 12 12 11 11 8 8 8 8 7 9 10 11 12 13 11 13 13 13 13 12 12 11 13 13 13 14 14 13 14 14 13 10 9
9 8 8 7 7 7 7 7 7 7 8 10 11 12 12 12 10 9 8 9 9 9 9 10 11 13 12 12 12 13 13 13 11 13 12 12 12 12 13 13 14 13 13 13 13 12 7
8 8 8 7 7 7 7 7 7 7 10 10 11 11 12 11 10 9 9 9 9 6 7 10 11 12 12 13 13 13 13 13 13 13 13 12 13 13 13 14 14 14 13 12 13 11 11
8 8 8 7 7 7 7 7 7 7 11 11 11 11 12 10 9 9 10 9 7 8 11 11 12 14 14 14 14 13 12 11 10 7 11 12 12 13 14 13 14 13 12 8 11 11 9
8 8 8 7 7 7 7 7 7 8 11 12 11 12 11 11 10 10 10 7 7 10 11 13 13 13 12 12 14 13 14 11 12 12 11 6 9 12 13 13 14 15 12 12 9 12 10
8 8 8 7 8 7 7 7 8 9 11 12 12 11 11 11 11 11 7 6 6 12 13 13 13 13 13 13 14 14 13 11 13 12 12 12 13 14 13 14 14 12 12 13 8 9 12
8 8 8 8 9 9 9 9 10 12 11 12 12 11 12 12 11 11 7 9 10 13 13 13 13 14 13 14 14 14 13 14 13 12 13 13 13 14 13 13 13 13 12 11 11 11 11
8 8 8 9 9 9 9 10 10 12 13 12 11 8 13 13 12 8 7 10 12 13 12 12 12 15 15 15 16 15 14 14 13 12 13 13 13 13 13 11 12 12 12 11 11 10 12
9 8 8 9 9 9 9 10 10 12 13 13 10 7 14 13 8 7 9 11 11 13 13 13 13 14 14 14 14 14 14 14 13 13 12 12 11 9 12 14 13 12 12 10 10 12 11
9 9 8 8 8 9 9 10 11 11 11 11 9 6 15 13 8 7 11 12 12 13 13 13 14 14 14 14 14 15 14 14 14 13 12 12 11 7 11 12 14 13 12 11 11 11 10
9 9 9 8 9 9 10 10 11 11 12 11 9 8 8 8 9 11 13 13 12 12 13 13 13 14 14 14 13 14 14 13 12 13 13 12 11 10 10 12 13 12 12 11 10 9 10
10 10 9 9 8 9 9 10 11 11 12 11 8 7 8 7 10 12 13 13 13 13 12 13 13 13 14 13 13 14 14 14 12 13 12 11 10 10 11 11 12 12 12 11 10 11 11
10 10 9 9 9 9 9 10 11 11 12 11 8 9 8 8 10 12 10 12 13 13 13 13 13 13 13 13 14 13 13 13 13 11 11 10 9 11 8 11 11 11 11 12 12 12 12
10 10 9 9 9 9 9 9 10 11 12 9 8 8 8 8 10 9 10 13 13 13 13 13 13 12 12 12 11 11 11 11 11 12 11 10 9 8 8 9 9 10 10 12 12 12 12
10 10 10 9 9 9 8 9 9 9 10 9 7 7 7 9 9 10 12 12 12 12 12 12 12 12 12 11 10 10 8 9 9 9 10 10 10 8 8 8 8 13 14 14 12 13 13
10 10 10 10 9 9 8 8 9 9 9 9 8 7 6 8 9 11 12 12 11 11 11 11 11 11 10 11 10 10 10 12 11 10 9 9 10 8 8 7 11 12 13 13 13 13 13
10 10 10 9 9 9 8 8 8 8 9 8 8 7 6 6 8 11 10 11 9 9 10 10 11 11 11 10 11 11 11 13 13 11 10 10 10 9 8 8 11 13 14 14 14 11 13
10 10 10 9 9 9 8 8 8 8 8 8 7 7 7 5 6 10 8 9 10 9 9 10 11 10 10 8 9 10 9 13 12 12 8 8 9 9 10 9 9 11 12 13 13 13 12
9 9 10 9 9 9 8 8 8 8 8 8 7 7 7 4 4 8 9 9 8 8 9 9 10 9 7 9 8 9 9 11 11 11 9 8 7 7 7 7 9 11 12 12 12 12 12
9 9 9 9 9 9 8 8 8 7 7 7 7 7 6 5 5 8 9 9 10 9 7 8 8 8 8 6 7 7 9 8 9 9 11 10 10 10 10 10 11 10 12 11 11 11 11
Height
832 829 825 819 814 810 805 800 796 791 786 781 776 770 765 761 757 755 754 755 753 750 743 740 749 752 757 767 775 776 777 778 780 780 781 782 786 790 798 800 800 804 804 807 811 812 813
834 830 826 821 817 812 807 803 799 795 790 784 778 772 768 762 760 758 757 756 757 756 755 753 755 760 769 774 781 780 780 781 783 783 784 785 788 790 797 803 808 809 808 810 812 813 814
835 832 828 824 819 815 810 805 802 798 793 787 782 778 773 769 763 762 760 758 759 759 763 764 766 769 777 790 785 783 784 784 785 786 788 789 788 791 797 808 807 810 811 814 813 814 818
837 833 830 825 821 818 813 808 803 800 796 791 787 783 779 777 773 770 767 764 763 765 764 767 771 766 786 791 790 788 786 788 790 790 792 793 791 795 803 807 810 813 818 825 816 816 818
839 835 831 827 824 820 816 811 806 803 798 794 791 789 786 783 781 778 774 771 770 771 772 769 768 771 796 798 795 795 792 794 795 795 796 796 796 805 808 815 825 818 834 817 820 815 816
840 837 833 829 825 821 818 814 810 806 802 799 794 792 790 786 786 783 780 778 778 775 773 777 780 788 804 806 801 801 798 798 799 798 800 801 806 816 820 827 838 823 830 813 818 820 818
841 838 834 830 826 823 820 816 813 810 805 802 799 793 792 789 786 783 781 782 783 784 778 791 799 801 806 806 804 802 800 800 801 801 808 806 820 836 828 820 816 815 817 816 813 816 819
843 840 836 832 828 825 821 818 815 811 807 803 801 798 795 794 791 789 786 789 796 799 801 803 803 803 803 803 803 804 805 805 803 809 806 819 828 820 818 817 817 817 818 821 819 815 817
845 841 838 834 829 826 822 819 816 813 809 805 803 801 799 797 795 793 794 799 800 799 804 810 811 813 813 811 813 812 809 806 808 811 814 823 822 816 816 818 819 820 820 823 824 822 816
846 842 839 835 831 827 823 819 816 813 810 806 803 802 800 800 800 799 800 802 802 801 822 826 817 818 815 814 819 815 812 813 810 817 815 822 819 818 819 818 819 821 820 819 820 836 849
848 844 840 836 832 827 824 821 817 812 809 806 804 802 801 800 803 803 806 803 802 803 831 830 824 818 816 816 819 817 814 811 817 814 818 825 823 823 821 820 818 826 820 822 823 828 854
849 845 841 837 832 829 825 822 818 813 808 807 805 802 802 802 803 804 803 802 803 831 855 836 825 821 819 817 817 816 816 814 814 813 816 821 819 822 824 820 820 820 822 823 822 833 836
849 846 842 837 833 829 826 823 818 813 809 807 806 804 802 803 803 801 801 802 828 841 837 834 826 818 816 817 817 817 820 824 830 850 833 824 823 821 821 824 820 821 826 862 841 834 851
850 847 843 839 834 830 826 823 819 815 810 808 806 805 804 802 802 799 799 815 841 836 829 822 821 820 825 823 818 818 818 827 825 824 830 864 852 826 822 822 819 818 829 831 862 825 840
850 847 844 840 835 831 827 822 818 815 812 809 807 805 803 802 799 798 805 837 854 825 823 824 821 821 822 819 818 814 821 829 825 825 829 828 823 819 821 818 821 827 829 826 850 845 823
850 847 844 840 836 831 827 823 818 814 812 810 808 806 803 801 799 798 819 831 830 823 823 824 823 819 822 820 818 817 820 819 824 826 825 826 825 818 820 819 821 822 828 835 837 830 829
851 848 844 841 836 832 828 823 818 813 810 809 810 812 803 801 801 807 834 831 826 824 825 826 826 817 818 818 815 814 820 822 821 827 826 828 826 824 822 825 822 826 825 833 832 837 824
853 849 846 842 838 833 829 824 818 814 810 809 811 825 806 803 818 827 832 822 824 824 824 823 823 820 821 820 822 820 822 821 819 822 825 825 829 844 823 808 807 814 819 828 835 824 823
854 850 847 844 840 836 831 826 820 815 813 812 816 820 808 807 833 839 824 823 823 821 821 821 820 819 817 819 822 816 816 817 817 821 823 825 831 854 826 820 809 810 814 816 819 821 828
855 851 847 844 841 838 833 828 824 818 815 815 817 829 817 814 821 823 821 822 824 824 822 820 820 818 819 819 818 818 816 818 817 817 818 820 826 828 833 812 808 810 806 813 817 832 818
854 852 849 845 842 839 835 830 826 821 816 817 821 832 828 836 826 822 821 822 821 821 823 820 819 818 817 820 819 818 814 813 818 817 820 824 831 826 816 808 806 801 800 804 810 800 805
854 852 849 846 843 839 836 833 828 823 819 818 828 829 828 828 823 821 827 822 819 819 819 818 820 817 817 818 815 818 817 817 814 820 820 821 828 818 823 801 801 802 792 791 790 789 787
853 851 850 847 843 840 837 835 831 827 823 823 827 828 830 829 824 827 826 819 819 818 816 816 818 821 820 817 817 814 813 813 815 816 819 822 828 833 825 811 807 799 779 773 773 768 768
853 850 848 846 844 841 838 836 834 831 829 830 830 830 832 831 829 823 816 815 817 820 821 818 818 820 816 814 812 809 813 812 814 815 816 817 822 832 833 825 830 767 757 759 764 759 755
851 850 848 846 844 842 839 837 836 834 833 832 832 832 834 834 828 821 817 817 816 815 819 819 817 817 816 815 819 815 810 803 803 809 813 814 819 832 832 835 791 764 761 763 763 756 748
848 847 846 845 843 841 840 839 837 836 833 834 833 833 834 838 829 820 820 817 823 821 819 813 813 813 815 820 819 815 814 798 799 807 807 812 814 826 828 825 793 761 755 754 756 770 748
843 843 843 843 841 840 838 838 837 837 836 834 835 833 833 839 825 821 824 820 816 819 822 815 812 814 815 824 824 823 825 797 802 798 819 820 815 815 815 819 791 758 754 754 763 755 745
838 839 839 839 839 838 837 835 835 834 836 835 834 833 834 836 825 819 818 819 818 818 819 817 817 819 824 824 825 819 816 804 803 799 806 812 823 825 824 824 796 751 755 756 745 741 742
832 834 834 834 835 835 834 833 832 832 832 834 833 833 832 832 823 818 815 812 814 813 813 813 812 812 816 830 824 822 815 813 809 807 787 797 786 787 787 772 746 744 737 736 738 739 739
Wind_Speed
25 25 26 28 28 31 29 29 29 28 28 28 28 29 26 19 15 14 15 16 20 20 21 20 22 23 16 7 8 11 7 9 7 4 3 4 4 2 7 5 4 4 3 5 6 6 1
25 25 24 26 28 28 28 27 28 28 27 27 29 29 33 29 15 15 16 16 20 18 21 18 18 22 8 14 13 9 8 11 9 9 16 8 4 2 5 5 5 3 5 4 5 4 2
24 25 25 24 27 28 28 28 27 27 26 25 26 28 33 33 25 22 21 20 20 21 28 25 23 32 20 9 11 15 17 16 14 14 7 13 6 7 3 5 2 2 3 2 1 1 2
24 24 24 24 24 25 27 28 28 26 25 24 23 25 26 31 34 30 27 24 24 24 26 21 26 31 8 16 20 21 19 24 16 15 13 11 14 6 4 4 4 3 4 3 1 2 2
23 24 24 24 24 24 24 25 26 26 24 23 19 18 19 21 26 29 30 28 27 27 20 19 27 16 5 11 13 17 13 8 11 12 11 7 6 4 3 4 4 3 2 3 2 4 1
24 22 22 23 23 23 23 23 24 23 23 22 16 11 15 22 16 15 25 30 29 19 7 7 16 10 7 4 6 11 6 5 3 3 4 5 5 4 4 5 3 3 3 2 3 4 2
23 23 22 22 21 22 23 22 22 21 21 19 17 12 15 22 17 9 7 4 6 9 31 14 11 12 4 3 4 8 8 6 1 2 3 3 7 4 5 4 2 3 4 2 3 1 4
24 23 23 21 21 21 21 22 21 20 19 16 14 13 13 17 21 22 24 6 4 3 12 16 9 6 5 5 7 14 9 1 1 4 3 6 6 3 5 5 4 3 2 2 2 0 3
26 24 23 22 21 20 20 21 21 19 17 15 11 10 10 8 7 17 23 9 8 7 6 6 5 4 3 6 6 9 10 4 3 7 6 6 3 1 3 2 2 2 2 2 0 5 2
23 26 25 23 21 21 20 20 21 19 19 13 9 6 6 8 4 6 6 7 7 5 5 10 9 5 4 3 4 7 8 2 6 4 4 6 2 2 1 1 2 2 4 4 5 5 2
22 25 25 25 23 21 20 20 20 20 19 13 8 5 3 9 4 4 3 8 6 2 7 11 7 4 5 4 3 6 5 4 5 4 5 0 3 1 2 3 2 2 3 2 2 1 4
22 23 26 25 23 23 21 20 18 19 12 11 9 6 1 2 2 2 6 6 2 6 5 6 4 3 3 2 2 1 4 3 1 3 6 3 1 2 2 3 3 3 3 2 1 2 3
21 23 25 25 24 23 22 20 18 17 9 9 10 9 6 4 2 8 8 2 6 7 1 4 3 4 9 5 3 3 3 5 3 5 4 3 2 1 1 1 2 1 2 3 2 1 5
21 22 25 25 25 23 22 21 20 17 8 5 7 9 9 9 8 8 3 5 10 5 2 3 2 2 3 4 2 3 2 4 7 3 2 3 5 5 3 3 1 1 2 2 4 2 4
20 22 23 25 27 25 23 23 22 18 6 1 4 5 4 9 7 5 5 6 6 0 3 0 2 1 1 1 2 0 4 3 3 4 3 2 1 3 2 4 2 0 1 1 1 3 4
19 20 21 25 27 26 26 26 24 18 10 4 3 4 5 12 4 5 5 5 3 2 3 1 1 2 3 3 1 1 3 1 4 3 2 3 2 3 1 3 2 1 2 1 1 4 4
21 19 20 23 26 26 25 27 27 20 10 5 3 3 5 11 3 5 4 3 3 2 2 2 4 4 4 3 3 1 2 0 2 3 2 1 1 1 3 5 7 4 2 1 1 2 2
22 20 20 22 24 25 25 26 28 22 13 4 2 3 8 7 4 2 2 3 2 2 2 1 1 1 2 3 3 1 1 2 6 6 3 6 1 3 8 5 8 5 5 5 3 1 3
19 20 20 21 24 25 25 25 27 22 18 5 2 2 5 5 3 2 1 1 0 3 3 1 1 2 1 2 2 1 3 5 6 5 3 3 2 2 5 5 3 4 5 4 2 2 6
16 19 20 19 21 23 24 25 26 21 14 4 2 2 4 4 0 5 1 1 2 1 1 2 3 3 2 3 4 3 0 6 7 5 6 4 3 6 6 5 2 4 6 7 6 4 4
14 15 18 19 19 21 22 23 24 23 12 4 3 1 2 1 3 2 2 0 1 2 2 3 2 3 2 1 2 3 1 1 4 6 4 4 4 4 7 12 9 13 14 11 13 13 8
13 14 14 17 18 18 20 22 23 23 10 6 2 2 2 1 1 2 1 4 3 1 3 3 2 2 3 3 3 3 1 3 4 3 4 3 4 3 6 11 6 9 12 14 17 19 20
12 12 14 14 16 16 17 18 21 23 11 5 3 1 2 2 1 3 3 1 1 2 2 2 1 1 4 5 3 5 5 5 5 3 3 4 2 3 5 6 9 8 8 14 7 7 15
12 12 12 13 14 14 14 15 17 18 16 5 4 1 3 3 1 3 4 3 2 2 3 3 2 1 3 4 6 5 5 8 7 8 7 3 2 1 4 6 3 6 1 4 9 8 11
13 13 12 13 13 13 12 12 13 14 13 10 6 3 2 2 3 5 3 2 2 2 4 4 5 2 3 5 4 6 3 2 3 5 7 6 4 3 2 3 9 10 2 4 4 6 3
15 14 12 12 12 12 11 10 10 10 10 7 8 6 2 1 3 3 2 2 2 2 4 4 3 2 3 0 1 2 4 4 2 1 3 5 4 3 2 2 5 5 2 2 2 5 4
17 16 14 13 11 11 10 9 8 8 8 7 2 6 2 1 4 1 3 3 3 0 2 2 2 2 3 1 1 3 4 2 3 3 5 3 4 11 9 5 9 8 6 4 2 6 6
21 18 16 13 12 11 11 9 8 6 6 6 3 2 1 2 5 3 3 3 1 2 3 2 3 3 2 1 2 3 3 4 2 3 5 7 6 5 4 4 10 7 4 7 5 3 5
24 21 19 16 13 13 12 10 9 7 6 4 2 1 3 4 5 5 12 15 11 6 4 2 5 5 4 2 1 2 3 2 3 4 1 4 7 4 9 7 6 9 8 8 6 6 6
Wind_Direction
19 18 15 15 17 19 20 18 19 18 18 15 14 13 14 13 21 31 36 44 52 44 36 63 109 100 92 57 30 1 50 97 105 54 21 80 128 129 139 120 74 63 109 66 96 91 94
19 20 17 15 16 19 22 19 19 19 20 20 20 28 33 38 41 43 45 45 59 57 66 72 92 115 53 45 350 28 89 99 63 54 54 48 63 120 82 83 74 28 80 85 89 88 33
21 21 19 16 17 19 20 21 20 22 21 23 28 33 37 39 41 57 55 55 58 73 80 74 99 106 66 39 44 105 74 60 66 74 61 38 36 75 79 91 36 59 80 72 241 105 113
22 22 21 18 15 16 18 20 19 23 20 25 34 41 46 46 48 60 64 70 67 88 74 62 85 76 72 19 65 90 68 76 81 82 76 68 52 69 64 112 60 81 51 97 274 138 266
23 24 21 18 16 14 15 17 17 18 20 23 38 44 34 28 36 62 67 66 67 94 84 64 57 71 54 19 34 46 62 51 76 80 70 57 63 91 59 87 50 19 158 149 317 219 146
21 23 23 18 16 13 15 14 17 17 17 18 29 38 26 19 30 67 62 68 69 51 31 49 42 79 7 39 21 49 1 298 40 76 43 32 59 75 27 57 160 202 128 94 170 233 236
20 21 23 21 14 14 13 14 16 14 16 20 15 11 17 31 57 65 69 11 9 38 55 63 70 89 91 22 82 19 347 355 319 312 92 21 70 80 92 63 80 63 83 90 64 189 238
16 20 20 20 18 14 12 11 11 11 9 22 17 6 18 52 72 80 79 67 34 114 79 86 73 44 26 348 33 12 342 276 1 75 71 47 71 82 80 47 44 43 61 27 12 56 320
12 15 18 17 16 16 11 9 6 5 5 17 21 13 9 52 51 44 65 59 47 19 78 40 68 55 338 33 31 345 8 343 54 59 65 99 99 96 78 42 21 60 39 58 144 342 324
11 13 14 14 14 14 13 7 2 359 358 11 21 20 355 346 44 22 51 21 9 356 77 358 1 18 343 163 50 355 354 350 29 66 87 83 332 44 39 103 82 109 5 27 16 48 275
8 10 10 11 12 15 15 11 2 354 358 13 19 15 356 12 6 52 359 343 357 353 62 318 327 300 291 77 186 349 341 16 57 63 74 176 126 280 319 59 42 105 8 309 292 286 57
9 8 10 10 12 16 13 10 5 354 5 19 16 15 12 63 41 34 322 329 87 43 47 342 290 299 34 59 34 276 358 15 341 39 61 104 60 30 3 18 35 349 340 341 176 58 285
7 7 10 10 11 13 13 13 10 0 12 24 33 35 33 12 347 323 334 108 47 61 207 322 290 354 53 55 29 49 63 37 57 66 12 338 184 154 314 135 220 112 17 359 336 312 231
7 7 6 9 12 12 15 13 8 5 24 35 47 44 36 21 358 352 39 54 68 244 157 213 267 358 87 13 59 11 88 63 13 29 79 111 337 182 179 239 184 85 120 177 222 266 268
10 8 6 8 12 11 11 13 9 8 9 54 352 345 333 346 1 24 70 58 151 122 310 341 278 290 151 15 65 136 87 113 50 342 64 357 85 99 163 24 57 322 282 176 111 227 270
10 8 6 8 11 14 13 11 10 7 356 323 313 305 305 354 1 61 67 96 95 26 349 275 16 87 86 345 63 103 129 268 123 48 10 38 309 184 198 72 26 359 46 357 86 316 291
5 10 8 9 10 13 14 12 8 7 353 346 326 36 345 352 24 48 95 85 108 76 45 31 9 64 72 74 75 16 87 193 138 141 168 211 291 349 84 201 180 173 219 167 242 199 261
4 6 8 8 9 12 14 15 11 5 14 27 27 27 352 355 48 52 57 124 186 146 193 271 60 304 67 351 343 5 71 130 155 165 187 206 71 255 233 244 190 172 182 158 147 228 224
4 6 8 7 7 10 11 13 14 11 12 359 68 229 354 344 90 4 229 103 346 173 163 160 261 82 278 256 137 130 148 180 162 192 219 183 241 340 351 1 330 201 195 176 127 108 218
1 2 7 8 8 8 9 10 12 12 13 21 68 36 330 43 89 123 98 117 165 255 242 205 219 189 268 234 216 215 201 205 183 192 173 137 235 195 199 213 137 220 194 192 164 181 220
356 358 3 5 7 8 8 9 11 10 13 33 30 270 206 330 351 32 75 183 235 217 232 212 238 220 172 265 322 215 2 337 194 178 176 159 244 221 253 263 262 261 252 203 207 212 205
347 351 357 0 4 6 9 9 11 12 19 75 69 31 352 219 302 29 310 223 203 237 182 231 213 350 317 235 193 240 119 237 240 205 193 194 267 311 273 258 261 255 248 236 227 232 242
336 343 346 350 358 3 6 11 14 18 21 72 46 68 85 289 222 103 204 312 347 90 245 174 153 349 275 244 291 251 217 218 213 154 226 173 198 17 269 330 319 289 224 209 208 213 218
319 330 335 340 343 354 2 8 17 25 33 38 38 16 79 290 274 231 190 148 188 255 261 337 181 212 262 314 293 264 233 238 227 233 191 203 76 160 278 348 337 250 201 198 219 244 227
304 312 324 327 331 340 352 3 10 24 26 45 30 38 90 266 228 301 253 227 279 230 211 218 250 213 318 344 330 335 339 310 252 221 205 184 134 270 246 222 284 302 202 196 197 283 227
286 297 307 314 316 325 335 347 1 9 25 23 35 31 63 106 259 291 267 235 219 246 316 219 86 109 71 155 341 270 259 244 259 133 67 144 145 159 322 227 261 237 186 123 89 285 198
277 284 292 299 303 308 319 322 340 355 360 14 11 13 75 312 274 203 213 208 172 186 249 294 185 72 65 83 224 229 259 294 259 212 172 145 202 220 229 261 280 248 177 155 119 244 177
275 274 278 282 288 291 298 305 306 328 336 349 321 349 52 211 274 240 246 216 212 152 168 256 21 6 55 149 187 255 220 246 307 220 187 173 165 200 183 208 266 161 99 181 208 155 169
270 271 268 268 274 277 280 286 291 290 296 309 276 284 294 210 248 274 261 256 255 227 151 227 179 168 192 112 252 299 309 305 201 264 236 241 198 198 192 219 238 202 205 204 184 180 205